Flag for U.S.A. Weather past 2 weeks in Frankfort, Kentucky, U.S.A.

Now
71 °F

Clear.


Feels Like: 70 °F
Forecast: 68 / 86 °F
Wind: 5 mph from Southeast

Location: Capital City Airport

Current Time: Aug 30, 2014 at 8:29:22 AM

Latest Report: Aug 30, 2014 at 7:53 AM


Visibility: 10 mi

Pressure: 30.04 "Hg

Humidity: 84%

Dew point: 66 °F

Location of FrankfortLocation

Historic Weather in Frankfort — Graph

°F

Frankfort temperature yesterday

Maximum temperature yesterday: 89 °F (at 4:53 PM)
Minimum temperature yesterday: 68 °F (at 5:53 AM)
Average temperature yesterday: 77 °F

Past Weeks' High & Low Weather Summary

 TemperatureHumidityPressure
High90 °F (Aug 26, 3:53 PM)100% (Aug 17, 3:00 AM)30.14 "Hg (Aug 17, 3:00 AM)
Low56 °F (Aug 16, 6:53 AM)30% (Aug 15, 4:53 PM)29.79 "Hg (Aug 18, 4:53 AM)
Average75 °F80%29.98 "Hg
* Reported Aug 15 6:53 AM — Aug 30 6:53 AM, Frankfort, Weather by CustomWeather, © 2014

Note: Actual official high and low records may vary slightly from our data, if they occured in-between our weather recording intervals... More about our weather records

Advertising

Frankfort weather history for previous 24 hours

 ConditionsComfort  
Time TempWeatherWind HumidityBarometerVisibility
6:53 AM
Aug 30
68 °FClear.3 mph90%30.03 "Hg10 mi
5:53 AM68 °FClear.No wind90%30.03 "Hg10 mi
4:53 AM70 °FClear.No wind84%30.02 "Hg10 mi
3:53 AM69 °FPassing clouds.No wind90%30.02 "Hg10 mi
2:53 AM72 °FPassing clouds.5 mph84%30.03 "Hg10 mi
1:53 AM71 °FClear.No wind87%30.03 "Hg10 mi
12:53 AM71 °FClear.3 mph84%30.03 "Hg10 mi
11:53 PM
Aug 29
71 °FClear.No wind84%30.02 "Hg10 mi
10:53 PM73 °FClear.No wind79%30.01 "Hg10 mi
9:53 PM74 °FClear.No wind79%30.01 "Hg10 mi
8:53 PM78 °FSunny.3 mph66%29.99 "Hg10 mi
7:53 PM83 °FSunny.6 mph53%29.98 "Hg10 mi
6:53 PM87 °FSunny.8 mph48%29.97 "Hg10 mi
5:53 PM89 °FSunny.9 mph45%29.97 "Hg10 mi
4:53 PM89 °FSunny.7 mph48%29.96 "Hg10 mi
2:53 PM87 °FScattered clouds.7 mph57%30.00 "Hg10 mi
1:53 PM88 °FPassing clouds.5 mph61%30.02 "Hg10 mi
12:53 PM86 °FSunny.7 mph61%30.03 "Hg10 mi
11:53 AM82 °FSunny.5 mph67%30.04 "Hg10 mi
10:53 AM80 °FPassing clouds.7 mph67%30.05 "Hg10 mi
9:53 AM75 °FPassing clouds.5 mph74%30.05 "Hg10 mi
8:53 AM71 °FSunny.8 mph78%30.05 "Hg10 mi
Weather by CustomWeather, © 2014

See weather overviewHow to use our weather pages